| time (UTC) | temp C | wind direction | speed KPH | gust KPH | rain 1hr cm | rain 24hr cm | rain mn cm | humidity % | barometer mb |
| 20260906181728 | 41 | 324 | 3.2 | 6.4 | 0.00 | 0.00 | 0.00 | 29 | 1013.1 |
| 20260906180226 | 40 | 259 | 3.2 | 4.8 | 0.00 | 0.00 | 0.00 | 30 | 1013.2 |
| 20260906174723 | 41 | 337 | 3.2 | 9.7 | 0.00 | 0.00 | 0.00 | 29 | 1013.6 |
| 20260906173220 | 41 | 245 | 4.8 | 4.8 | 0.00 | 0.00 | 0.00 | 30 | 1014.0 |
| 20260906171720 | 41 | 343 | 1.6 | 6.4 | 0.00 | 0.00 | 0.00 | 31 | 1014.1 |
| 20260906170218 | 41 | 181 | 3.2 | 6.4 | 0.00 | 0.00 | 0.00 | 31 | 1014.5 |
| 20260906164714 | 40 | 299 | 3.2 | 4.8 | 0.00 | 0.00 | 0.00 | 33 | 1014.7 |
| 20260906163213 | 40 | 221 | 4.8 | 6.4 | 0.00 | 0.00 | 0.00 | 32 | 1014.9 |
| 20260906161710 | 38 | 293 | 3.2 | 4.8 | 0.00 | 0.00 | 0.00 | 36 | 1014.8 |
| 20260906160208 | 38 | 162 | 3.2 | 4.8 | 0.00 | 0.00 | 0.00 | 36 | 1015.0 |
| 20260906154708 | 37 | 346 | 4.8 | 6.4 | 0.00 | 0.00 | 0.00 | 39 | 1015.0 |
| 20260906153207 | 36 | 13 | 1.6 | 6.4 | 0.00 | 0.00 | 0.00 | 41 | 1014.9 |
| 20260906151703 | 36 | 338 | 3.2 | 6.4 | 0.00 | 0.00 | 0.00 | 42 | 1014.7 |
| 20260906150201 | 36 | 228 | 3.2 | 8.0 | 0.00 | 0.00 | 0.00 | 40 | 1014.9 |
| 20260906144659 | 36 | 239 | 0.0 | 3.2 | 0.00 | 0.00 | 0.00 | 42 | 1014.7 |
| 20260906143157 | 35 | 171 | 3.2 | 3.2 | 0.00 | 0.00 | 0.00 | 44 | 1014.6 |
| 20260906141657 | 33 | 204 | 3.2 | 4.8 | 0.00 | 0.00 | 0.00 | 46 | 1014.8 |
| 20260906140152 | 33 | 156 | 3.2 | 3.2 | 0.00 | 0.00 | 0.00 | 47 | 1014.9 |
| 20260906134652 | 32 | 194 | 0.0 | 1.6 | 0.00 | 0.00 | 0.00 | 51 | 1014.7 |
| 20260906133149 | 30 | 135 | 0.0 | 3.2 | 0.00 | 0.00 | 0.00 | 57 | 1014.5 |
| 20260906131647 | 27 | 143 | 0.0 | 3.2 | 0.00 | 0.00 | 0.00 | 67 | 1014.4 |
| 20260906130145 | 26 | 115 | 0.0 | 4.8 | 0.00 | 0.00 | 0.00 | 69 | 1014.1 |
| 20260906124643 | 25 | 109 | 3.2 | 4.8 | 0.00 | 0.00 | 0.00 | 71 | 1014.1 |
| 20260906123138 | 25 | 121 | 3.2 | 4.8 | 0.00 | 0.00 | 0.00 | 72 | 1013.8 |
| 20260906121635 | 23 | 131 | 1.6 | 3.2 | 0.00 | 0.00 | 0.00 | 74 | 1013.7 |
| 20260906120130 | 24 | 104 | 3.2 | 4.8 | 0.00 | 0.00 | 0.00 | 72 | 1013.7 |
| 20260906114631 | 23 | 124 | 3.2 | 3.2 | 0.00 | 0.00 | 0.00 | 74 | 1013.7 |
| 20260906113126 | 24 | 159 | 1.6 | 3.2 | 0.00 | 0.00 | 0.00 | 73 | 1013.5 |
| 20260906111621 | 24 | 138 | 3.2 | 4.8 | 0.00 | 0.00 | 0.00 | 71 | 1013.4 |
| 20260906110117 | 24 | 140 | 1.6 | 3.2 | 0.00 | 0.00 | 0.00 | 71 | 1013.4 |
| 20260906104613 | 24 | 166 | 1.6 | 3.2 | 0.00 | 0.00 | 0.00 | 72 | 1013.4 |
| 20260906103113 | 24 | 99 | 0.0 | 3.2 | 0.00 | 0.00 | 0.00 | 73 | 1013.2 |
| 20260906101608 | 25 | 102 | 0.0 | 4.8 | 0.00 | 0.00 | 0.00 | 72 | 1013.3 |
| 20260906100104 | 25 | 111 | 4.8 | 4.8 | 0.00 | 0.00 | 0.00 | 72 | 1013.2 |
| 20260906094604 | 25 | 136 | 1.6 | 3.2 | 0.00 | 0.00 | 0.00 | 70 | 1013.2 |
| 20260906093102 | 25 | 101 | 0.0 | 3.2 | 0.00 | 0.00 | 0.00 | 68 | 1013.1 |
| 20260906091559 | 25 | 114 | 1.6 | 3.2 | 0.00 | 0.00 | 0.00 | 68 | 1013.2 |
| 20260906090056 | 26 | 110 | 1.6 | 4.8 | 0.00 | 0.00 | 0.00 | 67 | 1013.0 |
| 20260906084556 | 25 | 100 | 1.6 | 4.8 | 0.00 | 0.00 | 0.00 | 68 | 1013.0 |
| 20260906083056 | 26 | 170 | 3.2 | 3.2 | 0.00 | 0.00 | 0.00 | 68 | 1012.9 |
| 20260906081555 | 26 | 115 | 1.6 | 3.2 | 0.00 | 0.00 | 0.00 | 69 | 1013.0 |
| 20260906080055 | 26 | 11 | 0.0 | 3.2 | 0.00 | 0.00 | 0.00 | 65 | 1012.7 |
| 20260906074550 | 26 | 127 | 0.0 | 3.2 | 0.00 | 0.00 | 0.00 | 65 | 1012.9 |
| 20260906073046 | 27 | 126 | 1.6 | 3.2 | 0.00 | 0.00 | 0.00 | 65 | 1013.0 |
| 20260906071544 | 27 | 215 | 3.2 | 6.4 | 0.00 | 0.00 | 0.00 | 67 | 1013.0 |
| 20260906070043 | 26 | 182 | 3.2 | 3.2 | 0.00 | 0.00 | 0.00 | 67 | 1012.9 |
| 20260906064539 | 27 | 131 | 3.2 | 3.2 | 0.00 | 0.00 | 0.00 | 64 | 1012.9 |
| 20260906063037 | 27 | 227 | 0.0 | 1.6 | 0.00 | 0.00 | 0.00 | 63 | 1012.9 |
| 20260906061535 | 27 | 96 | 0.0 | 3.2 | 0.00 | 0.00 | 0.00 | 65 | 1013.1 |
| 20260906060033 | 27 | 117 | 3.2 | 3.2 | 0.00 | 0.00 | 0.00 | 64 | 1013.1 |
| 20260906054530 | 27 | 108 | 1.6 | 3.2 | 0.00 | 0.00 | 0.00 | 63 | 1013.1 |
| 20260906053027 | 27 | 131 | 0.0 | 3.2 | 0.00 | 0.00 | 0.00 | 64 | 1013.2 |
| 20260906051527 | 27 | 131 | 1.6 | 3.2 | 0.00 | 0.00 | 0.00 | 64 | 1013.0 |
| 20260906050024 | 27 | 89 | 0.0 | 3.2 | 0.00 | 0.00 | 0.00 | 65 | 1012.9 |
| 20260906044519 | 27 | 145 | 1.6 | 4.8 | 0.00 | 0.00 | 0.00 | 66 | 1013.2 |
| 20260906043018 | 27 | 91 | 1.6 | 1.6 | 0.00 | 0.00 | 0.00 | 65 | 1012.9 |
| 20260906041513 | 28 | 80 | 3.2 | 3.2 | 0.00 | 0.00 | 0.00 | 63 | 1013.2 |
| 20260906040009 | 28 | 127 | 0.0 | 3.2 | 0.00 | 0.00 | 0.00 | 63 | 1013.0 |
| 20260906034506 | 28 | 157 | 1.6 | 1.6 | 0.00 | 0.00 | 0.00 | 61 | 1012.9 |
| 20260906033003 | 28 | 95 | 0.0 | 0.0 | 0.00 | 0.00 | 0.00 | 60 | 1012.6 |
| 20260906031501 | 28 | 109 | 3.2 | 3.2 | 0.00 | 0.00 | 0.00 | 59 | 1012.6 |
| 20260906025957 | 29 | 126 | 3.2 | 3.2 | 0.00 | 0.00 | 0.00 | 58 | 1012.5 |
| 20260906024456 | 30 | 85 | 0.0 | 3.2 | 0.00 | 0.00 | 0.00 | 55 | 1012.4 |
| 20260906022952 | 30 | 134 | 3.2 | 3.2 | 0.00 | 0.00 | 0.00 | 52 | 1012.2 |
| 20260906021449 | 31 | 125 | 1.6 | 3.2 | 0.00 | 0.00 | 0.00 | 50 | 1012.3 |
| 20260906015949 | 31 | 125 | 0.0 | 3.2 | 0.00 | 0.00 | 0.00 | 49 | 1011.8 |
| 20260906014449 | 32 | 180 | 0.0 | 1.6 | 0.00 | 0.00 | 0.00 | 46 | 1011.6 |
| 20260906012948 | 32 | 217 | 0.0 | 1.6 | 0.00 | 0.00 | 0.00 | 46 | 1011.6 |
| 20260906011443 | 32 | 199 | 3.2 | 3.2 | 0.00 | 0.00 | 0.00 | 45 | 1011.6 |
| 20260906005942 | 33 | 223 | 0.0 | 1.6 | 0.00 | 0.00 | 0.00 | 44 | 1011.3 |
| 20260906004439 | 34 | 180 | 0.0 | 0.0 | 0.00 | 0.00 | 0.00 | 42 | 1011.4 |
| 20260906002936 | 35 | 198 | 0.0 | 1.6 | 0.00 | 0.00 | 0.00 | 40 | 1011.4 |
| 20260906001433 | 36 | 228 | 1.6 | 3.2 | 0.00 | 0.00 | 0.00 | 38 | 1011.4 |
| 20260905235930 | 38 | 242 | 0.0 | 3.2 | 0.00 | 0.00 | 0.00 | 35 | 1011.3 |
| 20260905234426 | 41 | 240 | 0.0 | 3.2 | 0.00 | 0.00 | 0.00 | 31 | 1011.4 |
| 20260905232926 | 42 | 224 | 0.0 | 3.2 | 0.00 | 0.00 | 0.00 | 29 | 1011.3 |
| 20260905231426 | 41 | 255 | 0.0 | 3.2 | 0.00 | 0.00 | 0.00 | 29 | 1011.3 |
| 20260905225924 | 41 | 198 | 1.6 | 6.4 | 0.00 | 0.00 | 0.00 | 28 | 1011.1 |
| 20260905224423 | 41 | 254 | 1.6 | 6.4 | 0.00 | 0.00 | 0.00 | 29 | 1011.2 |
| 20260905222920 | 40 | 257 | 0.0 | 3.2 | 0.00 | 0.00 | 0.00 | 31 | 1011.4 |
| 20260905221418 | 40 | 218 | 1.6 | 3.2 | 0.00 | 0.00 | 0.00 | 31 | 1011.4 |
| 20260905215914 | 43 | 211 | 0.0 | 4.8 | 0.00 | 0.00 | 0.00 | 27 | 1011.5 |
| 20260905214414 | 43 | 236 | 1.6 | 4.8 | 0.00 | 0.00 | 0.00 | 27 | 1011.6 |
| 20260905212911 | 44 | 217 | 3.2 | 6.4 | 0.00 | 0.00 | 0.00 | 26 | 1011.6 |
| 20260905211406 | 43 | 283 | 3.2 | 4.8 | 0.00 | 0.00 | 0.00 | 26 | 1012.0 |
| 20260905205902 | 42 | 266 | 3.2 | 6.4 | 0.00 | 0.00 | 0.00 | 27 | 1012.1 |
| 20260905204358 | 42 | 183 | 3.2 | 8.0 | 0.00 | 0.00 | 0.00 | 27 | 1012.6 |
| 20260905202854 | 40 | 238 | 3.2 | 3.2 | 0.00 | 0.00 | 0.00 | 32 | 1012.9 |
| 20260905201351 | 40 | 234 | 3.2 | 4.8 | 0.00 | 0.00 | 0.00 | 32 | 1012.8 |
| 20260905195851 | 40 | 220 | 3.2 | 4.8 | 0.00 | 0.00 | 0.00 | 31 | 1013.0 |
| 20260905194347 | 42 | 286 | 3.2 | 4.8 | 0.00 | 0.00 | 0.00 | 29 | 1013.2 |
| 20260905192843 | 42 | 184 | 8.0 | 16.1 | 0.00 | 0.00 | 0.00 | 29 | 1013.4 |
| 20260905191344 | 41 | 244 | 3.2 | 6.4 | 0.00 | 0.00 | 0.00 | 30 | 1013.4 |
| 20260905185840 | 41 | 236 | 3.2 | 6.4 | 0.00 | 0.00 | 0.00 | 30 | 1013.8 |
| 20260905184335 | 40 | 225 | 4.8 | 6.4 | 0.00 | 0.00 | 0.00 | 31 | 1014.0 |